Tracking 23762 objects as of 21-Oct-2021
HD Live streaming from Space Station
objects crossing your sky now

ARIANE 42P DEB

Track ARIANE 42P DEB now!
10-day predictions


NORAD ID: 44511
Int'l Code: 1992-052J
Perigee: 1,305.6 km
Apogee: 1,400.1 km
Inclination: 66.1 °
Period: 112.6 minutes
Semi major axis: 7723 km
RCS: Unknown
Launch date: August 10, 1992
Source: France (FR)
Launch site: FRENCH GUIANA (FRGUI)

Note: This is SATELLITE DEBRIS
aabbcc
Your satellite tracking list
Your tracking list is empty




NASA's NSSDC Master Catalog

Two Line Element Set (TLE):
1 44511U 92052J   21294.05477055  .00000764  00000-0  36501-2 0  9998
2 44511  66.0670 213.3561 0061153 341.7175  18.1641 12.78940863102290
Source of the keplerian elements: AFSPC